Hourly Weather Rudivka

Today, 20 April, Tuesday

Time Temperature Precipitation Wind Pressure Humidity
00:00 +12°C° 0 mm 2 mps 750 mmHg 74%
01:00 +10°C° 0 mm 2 mps 749 mmHg 75%
02:00 +10°C° 0 mm 2 mps 749 mmHg 76%
03:00 +10°C° 0 mm 2 mps 749 mmHg 78%
04:00 +10°C° 0 mm 3 mps 748 mmHg 81%
05:00 +10°C° 0 mm 3 mps 748 mmHg 83%
06:00 +10°C° 0 mm 4 mps 747 mmHg 85%
07:00 +10°C° 0 mm 4 mps 747 mmHg 83%
08:00 +10°C° 0 mm 5 mps 747 mmHg 81%
09:00 +11°C° 0 mm 6 mps 747 mmHg 80%
10:00 +12°C° 0.6 mm 5 mps 746 mmHg 82%
11:00 +12°C° 0.6 mm 5 mps 745 mmHg 84%
12:00 +12°C° 0.6 mm 5 mps 744 mmHg 87%
13:00 +12°C° 1.7 mm 5 mps 744 mmHg 88%
14:00 +12°C° 1.7 mm 5 mps 743 mmHg 90%
15:00 +12°C° 1.7 mm 5 mps 743 mmHg 91%
16:00 +12°C° 0.9 mm 5 mps 742 mmHg 88%
17:00 +11°C° 0.9 mm 6 mps 742 mmHg 85%
18:00 +13°C° 0.9 mm 6 mps 741 mmHg 82%
19:00 +11°C° 0.3 mm 6 mps 741 mmHg 83%
20:00 +10°C° 0.3 mm 6 mps 741 mmHg 85%
21:00 +10°C° 0.3 mm 5 mps 741 mmHg 86%
22:00 +9°C° 0.1 mm 6 mps 741 mmHg 86%
23:00 +9°C° 0.1 mm 7 mps 741 mmHg 85%

Tomorrow, 21 April, Wednesday

Time Temperature Precipitation Wind Pressure Humidity
00:00 +8°C° 0.1 mm 7 mps 741 mmHg 85%
01:00 +8°C° 0.1 mm 7 mps 742 mmHg 86%
02:00 +7°C° 0.1 mm 8 mps 742 mmHg 87%
03:00 +7°C° 0.1 mm 8 mps 743 mmHg 87%
04:00 +8°C° 0.1 mm 7 mps 743 mmHg 88%
05:00 +8°C° 0.1 mm 7 mps 744 mmHg 89%
06:00 +8°C° 0.1 mm 6 mps 745 mmHg 89%
07:00 +8°C° 0.1 mm 6 mps 746 mmHg 88%
08:00 +8°C° 0.1 mm 6 mps 747 mmHg 87%
09:00 +8°C° 0.1 mm 6 mps 748 mmHg 86%
10:00 +9°C° 0.1 mm 6 mps 748 mmHg 76%
11:00 +11°C° 0.1 mm 7 mps 749 mmHg 67%
12:00 +12°C° 0.1 mm 7 mps 749 mmHg 58%
13:00 +12°C° 0 mm 7 mps 749 mmHg 56%
14:00 +13°C° 0 mm 6 mps 750 mmHg 55%
15:00 +13°C° 0 mm 6 mps 750 mmHg 53%
16:00 +13°C° 0 mm 5 mps 750 mmHg 54%
17:00 +13°C° 0 mm 5 mps 750 mmHg 54%
18:00 +13°C° 0 mm 4 mps 751 mmHg 55%
19:00 +12°C° 0 mm 3 mps 751 mmHg 62%
20:00 +10°C° 0 mm 2 mps 752 mmHg 69%
21:00 +9°C° 0 mm 2 mps 752 mmHg 76%
22:00 +9°C° 0.2 mm 2 mps 752 mmHg 78%
23:00 +9°C° 0.2 mm 2 mps 752 mmHg 80%

Day after tomorrow, 22 April, Thursday

Time Temperature Precipitation Wind Pressure Humidity
00:00 +8°C° 0.2 mm 3 mps 753 mmHg 82%
01:00 +8°C° 0 mm 3 mps 753 mmHg 85%
02:00 +7°C° 0 mm 3 mps 753 mmHg 87%
03:00 +7°C° 0 mm 2 mps 753 mmHg 90%
04:00 +7°C° 0 mm 2 mps 754 mmHg 90%
05:00 +7°C° 0 mm 2 mps 754 mmHg 90%
06:00 +6°C° 0 mm 2 mps 754 mmHg 91%
07:00 +8°C° 0 mm 2 mps 755 mmHg 82%
08:00 +10°C° 0 mm 3 mps 755 mmHg 74%
09:00 +12°C° 0 mm 3 mps 755 mmHg 65%
10:00 +14°C° 0.1 mm 3 mps 755 mmHg 60%
11:00 +15°C° 0.1 mm 4 mps 755 mmHg 55%
12:00 +17°C° 0.1 mm 4 mps 755 mmHg 50%
13:00 +17°C° 0.1 mm 4 mps 755 mmHg 47%
14:00 +18°C° 0.1 mm 3 mps 755 mmHg 45%
15:00 +18°C° 0.1 mm 3 mps 755 mmHg 42%
16:00 +17°C° 0 mm 3 mps 755 mmHg 47%
17:00 +17°C° 0 mm 2 mps 755 mmHg 51%
18:00 +16°C° 0 mm 1 mps 755 mmHg 55%
19:00 +15°C° 0 mm 1 mps 755 mmHg 56%
20:00 +14°C° 0 mm 2 mps 755 mmHg 57%
21:00 +13°C° 0 mm 2 mps 755 mmHg 58%
22:00 +13°C° 0 mm 2 mps 755 mmHg 61%
23:00 +12°C° 0 mm 2 mps 755 mmHg 63%

23 April, Friday

Time Temperature Precipitation Wind Pressure Humidity
00:00 +12°C° 0 mm 2 mps 755 mmHg 66%
01:00 +10°C° 0 mm 2 mps 755 mmHg 69%
02:00 +10°C° 0 mm 2 mps 755 mmHg 71%
03:00 +10°C° 0 mm 2 mps 755 mmHg 74%
04:00 +10°C° 0 mm 2 mps 755 mmHg 77%
05:00 +9°C° 0 mm 2 mps 755 mmHg 80%
06:00 +9°C° 0 mm 2 mps 755 mmHg 83%
07:00 +11°C° 0 mm 3 mps 755 mmHg 77%
08:00 +12°C° 0 mm 3 mps 755 mmHg 71%
09:00 +14°C° 0 mm 3 mps 755 mmHg 65%
10:00 +15°C° 0.4 mm 4 mps 755 mmHg 59%
11:00 +17°C° 0.4 mm 4 mps 755 mmHg 53%
12:00 +18°C° 0.4 mm 4 mps 755 mmHg 46%
13:00 +18°C° 0.1 mm 4 mps 754 mmHg 46%
14:00 +18°C° 0.1 mm 4 mps 754 mmHg 46%
15:00 +18°C° 0.1 mm 3 mps 754 mmHg 47%
16:00 +18°C° 0 mm 4 mps 753 mmHg 48%
17:00 +17°C° 0 mm 4 mps 753 mmHg 50%
18:00 +17°C° 0 mm 4 mps 753 mmHg 52%
19:00 +15°C° 0 mm 4 mps 753 mmHg 55%
20:00 +14°C° 0 mm 4 mps 753 mmHg 58%
21:00 +13°C° 0 mm 4 mps 753 mmHg 61%
22:00 +12°C° 0 mm 4 mps 753 mmHg 65%
23:00 +11°C° 0 mm 4 mps 752 mmHg 69%

24 April, Saturday

Time Temperature Precipitation Wind Pressure Humidity
00:00 +10°C° 0 mm 4 mps 752 mmHg 73%
01:00 +10°C° 0 mm 4 mps 752 mmHg 76%
02:00 +9°C° 0 mm 3 mps 751 mmHg 79%
03:00 +8°C° 0 mm 3 mps 751 mmHg 81%
04:00 +8°C° 0 mm 3 mps 751 mmHg 82%
05:00 +8°C° 0 mm 3 mps 751 mmHg 82%
06:00 +8°C° 0 mm 3 mps 751 mmHg 82%
07:00 +8°C° 0.1 mm 4 mps 751 mmHg 81%
08:00 +8°C° 0.1 mm 5 mps 751 mmHg 81%
09:00 +8°C° 0.1 mm 6 mps 751 mmHg 81%
10:00 +8°C° 0.3 mm 5 mps 751 mmHg 78%
11:00 +7°C° 0.3 mm 4 mps 752 mmHg 74%
12:00 +7°C° 0.3 mm 4 mps 752 mmHg 71%
13:00 +8°C° 0 mm 4 mps 752 mmHg 63%
14:00 +9°C° 0 mm 5 mps 751 mmHg 56%
15:00 +12°C° 0 mm 5 mps 751 mmHg 48%
16:00 +12°C° 0 mm 5 mps 751 mmHg 47%
17:00 +12°C° 0 mm 4 mps 751 mmHg 45%
18:00 +12°C° 0 mm 4 mps 751 mmHg 44%
19:00 +10°C° 0 mm 4 mps 752 mmHg 54%
20:00 +7°C° 0 mm 4 mps 752 mmHg 63%
21:00 +6°C° 0 mm 4 mps 753 mmHg 73%
22:00 +5°C° 0 mm 4 mps 753 mmHg 76%
23:00 +5°C° 0 mm 4 mps 753 mmHg 79%

25 April, Sunday

Time Temperature Precipitation Wind Pressure Humidity
00:00 +4°C° 0 mm 4 mps 753 mmHg 82%
01:00 +4°C° 0 mm 4 mps 753 mmHg 82%
02:00 +3°C° 0 mm 4 mps 754 mmHg 81%
03:00 +1°C° 0 mm 4 mps 754 mmHg 81%
04:00 +1°C° 0 mm 4 mps 754 mmHg 82%
05:00 +2°C° 0 mm 3 mps 754 mmHg 83%
06:00 +2°C° 0 mm 3 mps 754 mmHg 84%
07:00 +3°C° 0 mm 3 mps 754 mmHg 73%
08:00 +5°C° 0 mm 3 mps 754 mmHg 63%
09:00 +8°C° 0 mm 3 mps 754 mmHg 52%
10:00 +9°C° 0 mm 3 mps 754 mmHg 48%
11:00 +10°C° 0 mm 3 mps 754 mmHg 44%
12:00 +12°C° 0 mm 2 mps 754 mmHg 40%
13:00 +12°C° 0 mm 2 mps 753 mmHg 39%
14:00 +13°C° 0 mm 2 mps 753 mmHg 37%
15:00 +13°C° 0 mm 2 mps 753 mmHg 36%
16:00 +13°C° 0 mm 1 mps 753 mmHg 38%
17:00 +13°C° 0 mm 1 mps 753 mmHg 40%
18:00 +13°C° 0 mm 1 mps 752 mmHg 42%
19:00 +12°C° 0 mm 1 mps 752 mmHg 44%
20:00 +10°C° 0 mm 1 mps 752 mmHg 47%
21:00 +8°C° 0 mm 2 mps 752 mmHg 50%
22:00 +9°C° 0 mm 1 mps 752 mmHg 51%
23:00 +9°C° 0 mm 1 mps 752 mmHg 52%
Show more